TIME,DELAY(SENSOR),PRES,T(CTD),SAL,OXYGEN,RAWTEMP,T(OPTODE),TCPHASE,FLUOR,BETA(BETA700),BETA(BETA412),BETA(BETA440),CDOM,C(CSC),ED(ED411.90),ED(ED443.80),ED(ED489.40),ED(ED554.70),LU(LU412.20),LU(LU443.80),LU(LU489.40),LU(LU555.00),COMP,TILTX,TILTX(TILTY),CHECK
1347117048,5803,496.7699890136719000,17.6604995727539060,36.4938011169433600,233.0520935058593800,181.0034942626953000,17.6596508026123050,31.7520809173584000,50,107,96,84,66,15327,2147488320,2147768265,2147561014,2147796214,2147304557,2147477147,2147709604,2148241901,2341,7,13,27380
1347117202,5804,485.6099853515625000,17.7495002746582030,36.5103988647460940,234.1044006347656200,178.2256011962890600,17.7441997528076170,31.6632499694824220,49,106,97,82,66,15326,2147483401,2147769088,2147562413,2147793563,2147306742,2147482285,2147705938,2148242953,3373,7,13,19574
1347117355,5802,473.2000122070312500,17.7989997863769530,36.5195007324218750,234.8885040283203000,176.4797973632812500,17.7973499298095700,31.6018104553222660,50,107,96,81,65,15328,2147484224,2147768475,2147559954,2147793737,2147309741,2147479552,2147706605,2148243501,279,7,13,55014
1347117465,5804,462.5299987792969000,17.8518009185791000,36.5287017822265600,235.3531951904297000,174.7743072509765600,17.8492603302001950,31.5563697814941400,50,108,98,83,65,15322,2147486299,2147767661,2147560091,2147791158,2147312521,2147478080,2147705545,2148244452,597,7,12,53923
1347117586,5805,451.1700134277344000,17.9088001251220700,36.5390014648437500,236.5097045898437500,172.8347930908203000,17.9083099365234380,31.4748706817626950,50,107,97,83,66,15325,2147487186,2147766692,2147560018,2147790171,2147304795,2147479515,2147706806,2148243392,818,7,13,40770
1347117709,5802,439.9599914550781000,17.9612998962402340,36.5471000671386700,236.6920013427734400,171.2355041503906200,17.9570102691650400,31.4446201324462900,50,108,97,84,65,15325,2147486180,2147768146,2147560521,2147791808,2147302290,2147476105,2147707501,2148244050,761,8,13,48916
1347117830,5805,429.0000000000000000,18.0147991180419920,36.5545997619628900,236.6349945068359400,169.4378051757812500,18.0117492675781250,31.4229698181152340,50,108,97,82,66,15327,2147486116,2147769298,2147557860,2147790290,2147311936,2147479570,2147706578,2148241014,1251,7,12,32732
1347117953,5803,417.9800109863281000,18.0569992065429700,36.5603981018066400,236.0625000000000000,167.9664001464843800,18.0565605163574220,31.4305305480957030,50,107,96,83,66,15327,2147486966,2147769078,2147555657,2147792036,2147311131,2147480978,2147704128,2148246893,1446,7,13,32058
1347118074,5804,407.2900085449219000,18.1016998291015620,36.5652999877929700,235.8656005859375000,166.6047058105468800,18.0980300903320300,31.4217605590820300,50,109,96,82,65,15328,2147487268,2147764141,2147559076,2147793947,2147308790,2147479140,2147708041,2148242761,1822,7,13,44258
1347118195,5803,396.7000122070312500,18.1322994232177730,36.5693016052246100,235.2734985351562500,165.2610015869140600,18.1389503479003900,31.4321308135986330,50,108,97,83,66,15324,2147487451,2147767177,2147559972,2147793563,2147310262,2147480658,2147707136,2148241901,2893,7,12,60061
1347118329,5804,385.2000122070312500,18.1965007781982420,36.5750999450683600,234.3468017578125000,163.3744964599609400,18.1964206695556640,31.4514598846435550,50,108,97,85,65,15323,2147488996,2147766290,2147562377,2147791908,2147300763,2147481846,2147704585,2148242395,3224,7,13,14487
1347118461,5804,373.9599914550781000,18.2597999572753900,36.5820007324218750,233.9192047119140600,161.3854980468750000,18.2570095062255860,31.4452095031738280,50,108,97,84,67,15321,2147486866,2147766262,2147562249,2147793426,2147298432,2147477010,2147706596,2148242797,2,7,12,53270
1347118584,5804,363.5899963378906000,18.3316993713378900,36.5882987976074200,233.3141021728515600,159.1434936523437500,18.3253192901611330,31.4443702697753900,50,110,97,85,65,15324,2147485705,2147767040,2147561526,2147790582,2147306331,2147478336,2147705856,2148241782,576,7,12,29449
1347118716,5805,352.6400146484375000,18.3889007568359380,36.5923004150390600,232.1761016845703000,157.1887054443359400,18.3848800659179700,31.4734802246093750,50,108,97,85,66,15322,2147491053,2147767241,2147566381,2147789467,2147303524,2147481353,2147705856,2148243785,370,7,12,23399
1347118848,5802,341.9299926757812500,18.4561004638671880,36.5931015014648440,231.3110046386718800,154.9456024169922000,18.4532394409179700,31.4856204986572270,50,109,97,85,67,15321,2147488521,2147762294,2147564507,2147792676,2147299565,2147478564,2147710208,2148241389,1038,7,12,15302
1347118993,5804,330.4400024414062500,18.5524005889892580,36.5982017517089840,228.4508056640625000,151.7899017333984400,18.5494194030761720,31.5837593078613280,50,109,97,84,67,15321,2147488384,2147765449,2147567506,2147789485,2147311021,2147478272,2147706660,2148239305,1580,7,13,45463
1347119136,5802,319.4500122070312500,18.6492996215820300,36.5934982299804700,226.5388946533203000,148.5200042724609400,18.6491107940673830,31.6348991394042970,50,109,96,84,65,15320,2147487012,2147768073,2147569801,2147791497,2147308598,2147480566,2147708498,2148241161,2079,7,13,3997
1347119270,5803,307.8900146484375000,18.8654003143310550,36.6130981445312500,229.0113067626953000,141.6121063232422000,18.8597793579101560,31.4196395874023440,50,108,97,84,66,15323,2147487844,2147771273,2147577161,2147791186,2147298377,2147485933,2147714614,2148239177,3283,7,12,10774
1347119380,5803,296.8500061035156000,18.9449005126953120,36.6034011840820300,230.4313049316406200,138.8338012695312500,18.9445400238037100,31.3130092620849600,50,108,97,84,67,15326,2147487405,2147771410,2147584320,2147788553,2147302080,2147484635,2147716937,2148240950,295,8,13,50790
1347119490,5803,286.1000061035156000,19.1637001037597660,36.6318016052246100,228.8182067871093800,131.8011932373047000,19.1591701507568360,31.2985496520996100,50,110,98,84,66,15327,2147486747,2147773302,2147596443,2147789942,2147305417,2147484077,2147723126,2148240850,1199,7,13,36344
1347119602,5803,275.2900085449219000,19.0993003845214840,36.5769996643066400,239.4362945556640600,133.7209014892578000,19.1005706787109380,30.8155193328857420,50,108,96,85,65,15325,2147492909,2147780004,2147606098,2147792155,2147299181,2147491730,2147732992,2148240877,1089,8,13,9808
1347119723,5805,263.5299987792969000,19.1993007659912100,36.5797996520996100,245.8376007080078000,130.4871978759765600,19.1992893218994140,30.4797096252441400,50,107,97,82,64,15325,2147489152,2147779977,2147628251,2147788416,2147305801,2147493266,2147743835,2148241618,1425,7,12,60372
1347119833,5800,252.6000061035156200,19.2602996826171880,36.5802001953125000,246.7001953125000000,128.4797058105468800,19.2605895996093750,30.4146595001220700,49,108,97,84,64,15324,2147491291,2147788342,2147654454,2147788032,2147303168,2147499273,2147753974,2148240621,2013,7,12,41674
1347119934,5805,242.4900054931640600,19.2973995208740230,36.5773010253906250,248.5070953369140600,127.2658996582031200,19.2976493835449220,30.3180198669433600,50,109,96,84,64,15324,2147494052,2147801344,2147687369,2147787830,2147302473,2147505856,2147777261,2148241792,2694,7,12,57619
1347120044,5803,231.5700073242187500,19.3430004119873050,36.5780982971191400,250.7071990966797000,125.8257980346679700,19.3416309356689450,30.2017898559570300,50,109,97,85,63,15322,2147494244,2147818770,2147735433,2147790482,2147310893,2147519798,2147807341,2148243090,2411,7,12,381
1347120154,5803,220.9299926757812500,19.3859996795654300,36.5780982971191400,251.8574066162109400,124.2978973388671900,19.3883094787597660,30.1317596435546880,53,110,97,85,63,15319,2147495341,2147836909,2147802258,2147789001,2147305078,2147531465,2147841782,2148248667,2634,8,12,53670
1347120266,5805,210.3800048828125000,19.4207992553710940,36.5758018493652340,251.2126007080078000,123.3225021362304700,19.4181003570556640,30.1471500396728500,54,111,96,83,62,15318,2147504950,2147868461,2147892342,2147788379,2147313965,2147548964,2147891090,2148249883,2910,7,12,20958
1347120387,5804,199.0399932861328000,19.4622993469238280,36.5789985656738300,251.5426025390625000,121.8606033325195300,19.4627704620361330,30.1137905120849600,56,112,97,84,63,15314,2147511030,2147927012,2148034788,2147791140,2147315200,2147582784,2147970989,2148252580,3226,8,13,29838
1347120442,5802,193.9100036621093800,19.4876995086669920,36.5764999389648440,251.9219970703125000,121.1131973266601600,19.4856090545654300,30.0876197814941400,57,113,97,83,64,15313,2147521444,2147955501,2148121453,2147789056,2147313691,2147602852,2148013668,2148259300,3443,7,12,4769
1347120497,5801,188.9199981689453000,19.5193996429443360,36.5801010131835940,252.6206970214843800,120.0679016113281200,19.5175399780273440,30.0435905456542970,57,114,97,85,64,15314,2147525897,2148000109,2148214528,2147789129,2147326244,2147621686,2148056420,2148259684,3071,7,12,3711
1347120572,5801,182.6499938964843800,19.5995006561279300,36.5800018310546900,253.3253021240234400,117.4513015747070300,19.5975208282470700,29.9791603088378900,58,112,97,85,66,15313,2147535378,2148058633,2148352365,2147789988,2147322212,2147651821,2148125056,2148263625,2826,7,12,50295
1347120627,5803,178.4499969482422000,19.6573009490966800,36.5894012451171900,253.7089996337890600,115.3640975952148400,19.6613197326660160,29.9356098175048830,57,112,97,84,66,15316,2147547181,2148103021,2148459492,2147790427,2147330313,2147671597,2148177472,2148266541,2819,7,12,33758
1347120682,5803,174.3399963378906200,19.7238006591796880,36.5928993225097660,253.5469055175781200,113.2053985595703100,19.7273197174072270,29.9146099090576170,56,111,98,84,66,15312,2147557312,2148159332,2148579675,2147788397,2147330761,2147703561,2148241216,2148270208,2996,8,13,25011
1347120737,5804,170.3500061035156200,19.8106994628906250,36.6026992797851560,253.6710052490234400,110.7031021118164000,19.8038501739501950,29.8771705627441400,59,112,98,85,65,15313,2147573248,2148226578,2148723382,2147788836,2147336365,2147741220,2148309933,2148274797,3553,8,12,4025
1347120792,5804,166.3899993896484400,19.8600006103515620,36.5951004028320300,254.2964019775390600,108.7539978027343800,19.8634700775146500,29.8252296447753900,58,113,97,85,66,15311,2147594038,2148313060,2148905554,2147788525,2147352832,2147787666,2148405952,2148281846,566,7,12,33715
1347120847,5804,162.5200042724609400,19.9393997192382800,36.5984001159668000,256.6643981933594000,106.3854980468750000,19.9359397888183600,29.6933403015136720,57,112,97,84,65,15309,2147621174,2148397988,2149087497,2147788132,2147364288,2147833746,2148497206,2148283456,706,7,12,64559
1347120924,5801,157.8500061035156200,20.0198993682861330,36.6076011657714840,257.3768005371094000,103.6951980590820300,20.0182704925537100,29.6285896301269530,57,111,97,84,65,15306,2147654436,2148508608,2149289197,2147791762,2147375067,2147884845,2148597613,2148293686,266,8,13,41502
1347120990,5802,154.5599975585937500,20.1534004211425780,36.6204986572265600,256.5296936035156000,100.3313980102539000,20.1212501525878900,29.6217193603515620,59,111,98,84,66,15313,2147687616,2148613083,2149523812,2147792832,2147389568,2147940205,2148710107,2148301796,115,7,12,53436
1347121078,5801,150.7100067138672000,20.2765007019042970,36.6287002563476560,253.2093963623047000,95.3474731445312500,20.2738990783691400,29.7002906799316400,58,110,98,83,64,15313,2147736457,2148747776,2149764964,2147795794,2147410194,2148010194,2148834770,2148312475,3231,7,13,42614
1347121177,5804,146.6300048828125000,20.4734992980957030,36.6538009643554700,251.9777984619140600,89.2702713012695300,20.4601402282714840,29.6758708953857420,59,111,97,84,65,15314,2147793993,2148902793,2150054116,2147795794,2147434806,2148094354,2148976722,2148318226,2841,7,13,37693
1347121267,5802,142.9199981689453000,20.5743007659912100,36.6701011657714840,247.2637023925781200,85.8904571533203100,20.5637702941894530,29.8392105102539060,59,110,97,83,65,15319,2147859748,2149078793,2150399204,2147801764,2147461165,2148192859,2149149906,2148332022,2674,7,13,22495
1347121366,5803,138.8300018310547000,20.6266002655029300,36.6558990478515600,247.4954986572265600,83.5930633544921900,20.6342391967773440,29.7994709014892580,63,110,97,84,65,15312,2147951369,2149291748,2150786523,2147804608,2147500800,2148320320,2149359286,2148346880,2074,7,12,51213
1347121476,5803,135.2100067138672000,20.7465991973876950,36.6577987670898440,250.7557983398437500,80.6097793579101600,20.7257804870605470,29.6184806823730470,68,113,97,84,65,15303,2148072905,2149573110,2151275126,2147808566,2147549357,2148456256,2149590747,2148360566,1214,7,13,64253
1347121596,5804,130.6699981689453000,20.9102001190185550,36.6642990112304700,250.9627075195312500,75.0933532714843800,20.8951301574707030,29.5393390655517580,73,114,98,84,64,15293,2148274861,2149997750,2151985892,2147814052,2147619739,2148661129,2149926061,2148387154,1674,8,13,53035
1347121684,5802,126.4400024414062500,21.0408992767334000,36.6725997924804700,250.8701019287109400,70.6901321411132800,21.0303897857666000,29.4875602722167970,78,116,97,84,65,15291,2148498962,2150441325,2152710820,2147825060,2147708059,2148868845,2150241005,2148410669,2264,7,12,58315
1347121772,5802,122.6600036621093800,21.2266998291015620,36.6520996093750000,251.6627960205078000,64.8749389648437500,21.2091407775878900,29.3795108795166000,98,123,98,86,66,15267,2148772032,2150975716,2153521472,2147836224,2147804754,2149077833,2150555794,2148437302,2963,7,12,22491
1347121895,5805,119.2500000000000000,21.4622001647949220,36.6425018310546900,253.3522033691406200,57.2673492431640600,21.4432106018066400,29.2110805511474600,102,124,98,86,64,15260,2149112694,2151607771,2154488466,2147847990,2147900946,2149290880,2150899163,2148469513,1774,7,12,1062
1347122205,5803,115.1299972534179700,21.7908992767334000,36.6806983947753900,255.2050018310547000,49.5736198425293000,21.6801795959472660,29.0357894897460940,105,126,101,87,64,15248,2149802870,2152865398,2156318875,2147879524,2148134665,2149732544,2151547172,2148532370,851,8,12,5713
1347122326,5805,110.9000015258789000,22.0268993377685550,36.6833992004394500,251.7765045166015600,39.4531517028808600,21.9923095703125000,29.0548591613769530,106,128,99,87,63,15237,2150569033,2154169956,2158089481,2147909193,2148388781,2150189046,2152195876,2148594230,878,8,12,13627
1347122447,5804,106.6999969482421900,22.1177005767822270,36.6775016784668000,253.2687988281250000,36.5063591003418000,22.0832805633544920,28.9544601440429700,108,129,100,86,63,15233,2151573714,2155835995,2160287725,2147953901,2148750957,2150818486,2153064740,2148684589,1031,7,12,56202
1347122546,5805,102.2900009155273400,22.3376998901367200,36.6865005493164060,249.8954010009765600,27.6939201354980470,22.3556003570556640,28.9886398315429700,118,134,100,88,62,15208,2153154880,2158334125,2163387099,2148027136,2149288859,2151712118,2154238299,2148808338,1163,7,12,50159
1347122623,5803,98.9499969482421900,22.5690994262695300,36.6733016967773440,249.5838928222656200,21.3934707641601560,22.5505294799804700,28.9233894348144530,117,129,100,87,62,15209,2154435958,2160332790,2165820288,2148079451,2149725906,2152419008,2155155072,2148902363,1044,7,12,21534
1347122678,5804,97.3099975585937500,22.6406002044677730,36.6442985534668000,252.0494995117187500,18.8030891418457030,22.6307392120361330,28.7856197357177730,117,131,102,88,62,15211,2155347757,2161666852,2167305837,2148126701,2150064484,2152918518,2155781284,2148967652,1220,6,12,2716
1347122733,5804,96.0999984741211000,22.7847995758056640,36.6324996948242200,256.3002929687500000,14.5518198013305660,22.7624492645263670,28.5541591644287100,117,130,99,89,61,15211,2155969901,2162717275,2168636297,2148147702,2150331419,2153361408,2156314971,2149018038,886,8,12,22303
1347122833,5805,94.3000030517578100,22.9473991394042970,36.6393013000488300,258.0863952636719000,8.7660217285156250,22.9418601989746100,28.4086494445800780,111,129,99,89,63,15199,2157269174,2164559149,2170618313,2148212068,2150880914,2154145499,2157169316,2149113014,747,7,12,4090
1347122910,5804,91.8499984741211000,23.1457004547119140,36.6259002685546900,257.9682922363281000,2.8220860958099365,23.1263599395751950,28.3403205871582030,106,130,100,87,62,15214,2159115090,2167098368,2173359771,2148319515,2151661632,2155317750,2158515126,2149250148,911,7,12,47684
1347122965,5802,90.2099990844726600,23.2611999511718750,36.6116981506347660,257.8317871093750000,-0.9164034724235535,23.2425098419189450,28.3000907897949220,100,131,100,88,61,15210,2160039936,2168418907,2174657773,2148354642,2152081380,2155903222,2159069979,2149305088,461,7,12,37926
1347123042,5804,88.5000000000000000,23.3974990844726560,36.6077995300293000,257.7016906738281000,-5.0116000175476070,23.3698406219482420,28.2551593780517580,96,133,100,88,60,15214,2161484224,2170272813,2176571401,2148448804,2152657773,2156713508,2159988059,2149398125,3296,7,12,11288
1347123154,5800,86.1399993896484400,23.5781002044677730,36.5961990356445300,257.2818908691406000,-11.2571697235107420,23.5642204284667970,28.1957702636718750,95,137,101,88,61,15194,2163410166,2172868928,2179424054,2148555126,2153596333,2158018834,2161388242,2149543771,2489,8,12,60910
1347123220,5801,84.1200027465820300,23.6984004974365230,36.6040992736816400,256.6723937988281000,-15.5339202880859380,23.6974601745605470,28.1685504913330080,92,134,102,89,62,15201,2165534838,2175691419,2182519981,2148704310,2154623350,2159512960,2163053220,2149703341,2414,8,12,54685
1347123297,5803,82.3199996948242200,23.7579002380371100,36.5960998535156250,256.6943054199219000,-16.9270095825195300,23.7408790588378900,28.1505107879638670,95,134,101,88,60,15195,2167802541,2178674834,2185753243,2148846189,2155852928,2161198656,2164868992,2149896841,1239,8,12,14984
1347123396,5803,80.6200027465820300,24.0041007995605470,36.5867996215820300,255.9131927490234400,-22.3635692596435550,23.9104595184326170,28.1161098480224600,92,137,101,90,59,15190,2169354898,2180605458,2187520950,2148945700,2156778980,2162370889,2165846445,2149999168,653,8,12,9220
1347123518,5804,78.1699981689453100,24.1233005523681640,36.5210990905761700,256.5234069824219000,-29.3083896636962900,24.1273708343505860,28.0062007904052730,88,136,101,88,58,15192,2173193325,2185147209,2191833572,2149174592,2158947629,2165176612,2168706550,2150290130,1344,8,12,45504
1347123595,5805,76.3300018310546900,24.2439994812011720,36.5059013366699200,257.1220092773437500,-31.9843292236328120,24.2110290527343750,27.9489097595214840,84,135,101,87,58,15191,2176153590,2189065545,2195955730,2149409078,2160577490,2167321170,2170829659,2150501220,1477,8,12,51709
1347123716,5798,74.9300003051757800,24.4214000701904300,36.4710006713867200,257.6524963378906000,-37.8928604125976560,24.3959197998046880,27.8553295135498050,83,135,102,90,59,15187,2177842130,2190845979,2197401993,2149520301,2161748516,2168789101,2172206912,2150641051,1447,7,12,28668
1347123848,5803,73.4100036621093800,24.6252002716064450,36.4602012634277340,256.5538940429687500,-44.7265510559082000,24.6100502014160160,27.8171291351318360,83,135,101,89,60,15186,2181696932,2195856676,2202649865,2149803273,2164066112,2171634998,2174702893,2150923830,1123,7,12,13349
1347123947,5804,71.5000000000000000,24.8617000579834000,36.4362983703613300,256.0737915039062500,-52.4521484375000000,24.8525199890136720,27.7430000305175780,80,131,103,89,60,15188,2184366528,2198952749,2205585581,2150100544,2166114112,2174231488,2177105691,2151179410,763,8,12,16551
1347124147,5803,69.1100006103515600,25.0303001403808600,36.4252014160156250,255.8827056884765600,-57.9846992492675800,25.0264205932617200,27.6835803985595700,75,136,102,90,57,15170,2189713947,2205261001,2211656795,2150618240,2169139702,2177931227,2180489362,2151513728,3008,8,12,33571
1347124213,5804,67.2799987792968800,25.2793998718261720,36.4441986083984400,253.2729949951172000,-65.3270416259765600,25.2575492858886720,27.7019195556640620,74,138,102,89,59,15172,2193260224,2209666880,2216044196,2150929316,2171728996,2180965174,2183171702,2151820690,3138,8,12,36776
1347124301,5800,65.5699996948242200,25.4526996612548830,36.4282989501953100,251.8973999023437500,-71.0547103881836000,25.4381294250488280,27.6894798278808600,76,137,101,90,58,15178,2196789467,2213615049,2219863771,2151322240,2174451346,2184364982,2186469028,2152162724,2594,7,12,9832
1347124456,5802,63.3400001525878900,25.7703990936279300,36.3852005004882800,244.0442962646484400,-80.7113723754882800,25.7431392669677730,27.9040794372558600,74,136,100,89,57,15168,2206299666,2224505316,2230700717,2152267373,2179875757,2191077293,2192906925,2152927515,2294,8,12,25096
1347124588,5802,61.5699996948242200,25.8166999816894530,36.3492012023925800,243.0839996337890600,-82.6617965698242200,25.8048400878906250,27.9215908050537100,69,140,100,90,58,15182,2190484617,2200752868,2201681179,2150730130,2170990537,2177713947,2177463533,2151359232,1894,8,12,37505
1347124721,5802,58.9900016784668000,26.0247001647949220,36.3474006652832000,239.6159973144531200,-89.3379364013671900,26.0162391662597660,27.9910297393798830,69,136,101,91,60,15173,2218862729,2237288173,2242082075,2153764726,2186602742,2198756864,2199646473,2153871835,2738,7,12,34598
1347124776,5801,57.2000007629394500,26.2105007171630860,36.3280982971191400,235.9116973876953000,-94.8473663330078100,26.1909599304199220,28.0872707366943360,70,142,103,88,60,15175,2226860333,2245637540,2250421440,2154909184,2190163565,2202766436,2203450880,2154473691,2186,8,11,55354
1347124875,5802,55.9300003051757800,26.4120006561279300,36.3017005920410160,234.1887969970703000,-99.2384872436523400,26.3304004669189450,28.1105995178222660,67,136,102,91,58,15185,2206239689,2217793417,2218354194,2152547154,2179929536,2188772672,2188521234,2152705737,2918,8,12,26204
1347125183,5804,53.0800018310546900,26.7777996063232420,36.2537994384765600,236.2310028076172000,-112.6801986694336000,26.7582302093505860,27.8549098968505860,65,140,101,91,59,15178,2241351497,2257294637,2257793600,2156121389,2199338395,2212484882,2210753316,2155459922,2850,8,11,31476
1347125217,5804,52.7599983215332000,26.8094005584716800,36.2527008056640600,236.7362976074218800,-113.9609985351562500,26.7990798950195300,27.8169803619384770,63,141,100,90,58,15185,2245706633,2261784740,2262390592,2156998619,2201697060,2215337600,2213392027,2155803593,2633,7,12,54438
1347125405,5802,50.9300003051757800,26.9540004730224600,36.2223014831543000,238.5706024169922000,-119.0404968261718800,26.9612102508544920,27.6743793487548830,63,138,102,91,60,15177,2260066797,2275241179,2274883693,2158870610,2212461421,2226263661,2222336402,2157128365,1817,8,11,39023
1347125450,5803,49.8300018310546900,27.0904006958007800,36.2233009338378900,239.1885070800781200,-122.8550033569336000,27.0831108093261720,27.6011505126953120,62,136,102,92,61,15174,2244029266,2254995803,2252748635,2156976585,2206690742,2217906797,2212624841,2155916114,1198,8,12,11068
1347125591,5803,47.9799995422363300,27.6033000946044920,36.2680015563964840,239.5892028808593800,-139.5213012695312500,27.6172599792480470,27.3813400268554700,62,132,102,90,57,15173,2268562816,2283159021,2281549924,2159843748,2223327030,2236926720,2230574006,2158229796,1428,9,12,24310
1347125706,5801,45.7599983215332000,27.5139999389648440,36.1666984558105500,240.6911010742187500,-137.0063018798828000,27.5364894866943360,27.3643302917480470,61,138,100,91,56,15176,2281698057,2296139392,2294375972,2162920411,2233539346,2246346633,2237416530,2159497371,1994,8,12,59216
1347125799,5807,43.9799995422363300,27.8894004821777340,36.1315994262695300,239.1087951660156200,-148.9598999023437500,27.9209003448486330,27.2876396179199220,60,138,103,91,62,15180,2287083849,2300688768,2298881737,2164859044,2242634587,2255283693,2244811465,2160776164,1808,8,11,17680
1347126298,5803,42.6399993896484400,28.1662006378173830,36.0253982543945300,234.9308929443359400,-157.1340026855468800,28.1845493316650400,27.3708992004394530,57,135,103,90,60,15185,2294742180,2309778395,2308488868,2166995712,2257005915,2268300480,2252491017,2161823085,602,9,11,35266